Weather History for Princeton, MN

Change the Weather History Date:

Wednesday, January 15, 2014

  Actual Average Record
Temperature  
Mean Temperature 8 °F -  
Max Temperature 24 °F 18 °F 39 °F (2006)
Min Temperature -7 °F 2 °F -27 °F (2009)
Degree Days  
Heating Degree Days 56    
Moisture  
Dew Point 4 °F    
Average Humidity 80    
Maximum Humidity 93    
Minimum Humidity 62    
Precipitation  
Precipitation 0.00 in - - ()
Sea Level Pressure  
Sea Level Pressure 29.83 in    
Wind  
Wind Speed 7 mph (SSW)    
Max Wind Speed 17 mph    
Max Gust Speed 25 mph    
Visibility 9 miles    
Events Snow    
Averages and records for this station are not official NWS values.
T = Trace of Precipitation, MM = Missing Value Source: NWS Daily Summary

Daily Weather History Graph

Daily Weather History Graph

Search for Another Location

Airport:

Trip Planner

Search our weather history database for the weather conditions in past years. The results will help you decide how hot, cold, wet, or windy it might be!

Date:

Astronomy

Jan. 15, 2014 Rise Set
Actual Time 7:50 AM CST 4:57 PM CST
Civil Twilight 7:17 AM CST 5:30 PM CST
Nautical Twilight 6:40 AM CST 6:07 PM CST
Astronomical Twilight 6:05 AM CST 6:42 PM CST
Moon 4:58 PM CST (1/15) 7:04 AM CST (1/15)
Length of Visible Light 10h 12m
Length of Day
9h 06m
Full, 100% of the Moon is Illuminated
Jan 15
Full
Jan 15
Full
Jan 23
Last Quarter
Jan 30
New
Feb 6
First Quarter

Hourly Weather History & Observations

Time (CST) Temp. Windchill Dew Point Humidity Pressure Visibility Wind Dir Wind Speed Gust Speed Precip Events Conditions
12:13 AM 3.2 °F -12.2 °F -2.2 °F 78% 30.12 in 10.0 mi WNW 10.4 mph - N/A   Clear
12:34 AM 3.2 °F -11.3 °F -2.2 °F 78% 30.12 in 10.0 mi WNW 9.2 mph - N/A   Clear
12:53 AM 3.2 °F -9.1 °F -2.2 °F 78% 30.12 in 10.0 mi WNW 6.9 mph - N/A   Clear
1:13 AM 1.4 °F -13.5 °F -2.2 °F 85% 30.11 in 10.0 mi WNW 9.2 mph - N/A   Clear
1:33 AM 1.4 °F -11.3 °F -2.2 °F 85% 30.11 in 10.0 mi WNW 6.9 mph - N/A   Clear
1:54 AM 1.4 °F -9.9 °F -4.0 °F 78% 30.11 in 10.0 mi WNW 5.8 mph - N/A   Clear
2:13 AM -0.4 °F -10.4 °F -5.8 °F 78% 30.11 in 10.0 mi WNW 4.6 mph - N/A   Clear
2:33 AM -2.2 °F -10.4 °F -5.8 °F 85% 30.11 in 10.0 mi WNW 3.5 mph - N/A   Clear
2:53 AM -2.2 °F - -7.6 °F 78% 30.11 in 10.0 mi Calm Calm - N/A   Clear
3:14 AM -7.6 °F -16.5 °F -11.2 °F 84% 30.11 in 10.0 mi West 3.5 mph - N/A   Clear
3:33 AM -4.0 °F -12.4 °F -7.6 °F 85% 30.10 in 10.0 mi West 3.5 mph - N/A   Clear
3:53 AM -7.6 °F -16.5 °F -9.4 °F 92% 30.11 in 10.0 mi West 3.5 mph - N/A   Clear
4:13 AM -7.6 °F - -11.2 °F 84% 30.11 in 10.0 mi Calm Calm - N/A   Clear
4:33 AM -7.6 °F - -11.2 °F 84% 30.12 in 10.0 mi Calm Calm - N/A   Mostly Cloudy
4:53 AM -2.2 °F -12.5 °F -7.6 °F 78% 30.11 in 10.0 mi West 4.6 mph - N/A   Overcast
5:14 AM -0.4 °F -8.3 °F -5.8 °F 78% 30.10 in 10.0 mi West 3.5 mph - N/A   Overcast
5:33 AM 1.4 °F -6.2 °F -2.2 °F 85% 30.09 in 10.0 mi WSW 3.5 mph - N/A   Overcast
5:53 AM 1.4 °F - -2.2 °F 85% 30.09 in 10.0 mi Calm Calm - N/A   Overcast
6:13 AM 1.4 °F - -2.2 °F 85% 30.09 in 10.0 mi Calm Calm - N/A   Overcast
6:33 AM 1.4 °F - -2.2 °F 85% 30.09 in 10.0 mi Calm Calm - N/A   Overcast
6:54 AM 3.2 °F - -2.2 °F 78% 30.08 in 10.0 mi Calm Calm - N/A   Overcast
7:13 AM 3.2 °F - -0.4 °F 85% 30.08 in 10.0 mi Calm Calm - N/A   Overcast
7:33 AM 3.2 °F -4.2 °F -0.4 °F 85% 30.08 in 10.0 mi SSW 3.5 mph - N/A   Overcast
7:54 AM 3.2 °F -4.2 °F -0.4 °F 85% 30.06 in 10.0 mi South 3.5 mph - N/A   Overcast
8:13 AM 3.2 °F - -0.4 °F 85% 30.06 in 10.0 mi Calm Calm - N/A   Overcast
8:33 AM 3.2 °F -4.2 °F -0.4 °F 85% 30.06 in 10.0 mi South 3.5 mph - N/A   Overcast
8:54 AM 3.2 °F -4.2 °F -0.4 °F 85% 30.05 in 10.0 mi South 3.5 mph - N/A   Overcast
9:13 AM 5.0 °F -2.1 °F -0.4 °F 78% 30.05 in 10.0 mi South 3.5 mph - N/A   Overcast
9:33 AM 6.8 °F -3.5 °F 1.4 °F 79% 30.03 in 10.0 mi SSW 5.8 mph - N/A   Overcast
9:53 AM 6.8 °F -2.0 °F 1.4 °F 79% 30.03 in 10.0 mi SSW 4.6 mph - N/A   Overcast
10:13 AM 8.6 °F -1.3 °F 1.4 °F 73% 30.02 in 10.0 mi SSW 5.8 mph - N/A   Scattered Clouds
10:33 AM 8.6 °F -2.6 °F 1.4 °F 73% 30.01 in 10.0 mi South 6.9 mph - N/A   Scattered Clouds
10:53 AM 8.6 °F -3.7 °F 1.4 °F 73% 29.99 in 10.0 mi South 8.1 mph - N/A   Scattered Clouds
11:13 AM 10.4 °F -2.4 °F 1.4 °F 67% 29.96 in 10.0 mi South 9.2 mph - N/A   Scattered Clouds
11:33 AM 10.4 °F -1.5 °F 1.4 °F 67% 29.94 in 10.0 mi South 8.1 mph - N/A   Clear
11:53 AM 10.4 °F -2.4 °F 1.4 °F 67% 29.91 in 10.0 mi South 9.2 mph - N/A   Clear
12:13 PM 12.2 °F -1.0 °F 1.4 °F 62% 29.90 in 10.0 mi SSW 10.4 mph 17.3 mph N/A   Clear
12:33 PM 12.2 °F -1.8 °F 3.2 °F 67% 29.88 in 10.0 mi South 11.5 mph 16.1 mph N/A   Clear
12:53 PM 12.2 °F -3.7 °F 3.2 °F 67% 29.87 in 10.0 mi South 15.0 mph 18.4 mph N/A   Scattered Clouds
1:13 PM 12.2 °F -2.5 °F 3.2 °F 67% 29.85 in 10.0 mi South 12.7 mph 17.3 mph N/A   Mostly Cloudy
1:33 PM 12.2 °F -1.8 °F 3.2 °F 67% 29.84 in 10.0 mi South 11.5 mph - N/A   Mostly Cloudy
1:53 PM 12.2 °F -3.1 °F 3.2 °F 67% 29.81 in 10.0 mi South 13.8 mph 17.3 mph N/A   Mostly Cloudy
2:13 PM 12.2 °F -1.0 °F 5.0 °F 73% 29.79 in 10.0 mi South 10.4 mph - N/A   Mostly Cloudy
2:33 PM 12.2 °F 0.7 °F 6.8 °F 79% 29.79 in 10.0 mi South 8.1 mph - N/A   Mostly Cloudy
2:54 PM 12.2 °F -1.0 °F 6.8 °F 79% 29.75 in 10.0 mi SSE 10.4 mph - N/A   Overcast
3:13 PM 12.2 °F -2.5 °F 6.8 °F 79% 29.74 in 10.0 mi SSE 12.7 mph 19.6 mph N/A   Overcast
3:33 PM 14.0 °F -1.4 °F 6.8 °F 73% 29.72 in 10.0 mi SSE 15.0 mph 18.4 mph N/A   Overcast
3:53 PM 14.0 °F -2.5 °F 6.8 °F 73% 29.70 in 10.0 mi SSE 17.3 mph 20.7 mph N/A   Overcast
4:13 PM 12.2 °F -4.8 °F 8.6 °F 85% 29.67 in 1.0 mi SSE 17.3 mph 23.0 mph N/A Snow Light Snow
4:34 PM 12.2 °F -3.7 °F 8.6 °F 85% 29.66 in 3.0 mi SSE 15.0 mph 19.6 mph N/A Snow Light Snow
4:53 PM 14.0 °F -1.4 °F 8.6 °F 79% 29.64 in 5.0 mi SSE 15.0 mph 19.6 mph N/A Snow Light Snow
5:13 PM 14.0 °F -2.5 °F 10.4 °F 86% 29.60 in 1.8 mi SSE 17.3 mph 25.3 mph N/A Snow Light Snow
5:34 PM 14.0 °F -0.8 °F 10.4 °F 86% 29.59 in 1.8 mi SSE 13.8 mph 21.9 mph N/A Snow Light Snow
5:53 PM 15.8 °F 1.4 °F 10.4 °F 79% 29.59 in 2.5 mi South 13.8 mph 18.4 mph N/A Snow Light Snow
6:13 PM 15.8 °F -0.2 °F 10.4 °F 79% 29.56 in 10.0 mi South 17.3 mph - N/A   Overcast
6:34 PM 15.8 °F 1.4 °F 10.4 °F 79% 29.54 in 10.0 mi South 13.8 mph - N/A   Overcast
6:53 PM 15.8 °F 1.4 °F 12.2 °F 86% 29.49 in 10.0 mi SSE 13.8 mph 21.9 mph N/A   Overcast
7:13 PM 17.6 °F 4.3 °F 14.0 °F 86% 29.48 in 10.0 mi South 12.7 mph 20.7 mph N/A   Overcast
7:33 PM 19.4 °F 5.5 °F 15.8 °F 86% 29.47 in 10.0 mi South 15.0 mph 25.3 mph N/A   Overcast
7:53 PM 19.4 °F 4.5 °F 15.8 °F 86% 29.48 in 10.0 mi South 17.3 mph - N/A   Overcast
8:14 PM 19.4 °F 5.5 °F 15.8 °F 86% 29.45 in 10.0 mi South 15.0 mph 24.2 mph N/A   Overcast
8:33 PM 21.2 °F 8.3 °F 17.6 °F 86% 29.45 in 10.0 mi South 13.8 mph 19.6 mph N/A   Overcast
8:53 PM 21.2 °F 8.3 °F 17.6 °F 86% 29.44 in 3.0 mi South 13.8 mph 19.6 mph N/A Snow Light Snow
9:14 PM 21.2 °F 8.3 °F 17.6 °F 86% 29.40 in 1.0 mi South 13.8 mph - N/A Snow Snow
9:33 PM 21.2 °F 10.9 °F 17.6 °F 86% 29.39 in 10.0 mi South 9.2 mph - N/A Snow Light Snow
9:53 PM 21.2 °F 11.7 °F 17.6 °F 86% 29.38 in 10.0 mi South 8.1 mph - N/A   Scattered Clouds
10:13 PM 21.2 °F 12.6 °F 17.6 °F 86% 29.37 in 10.0 mi South 6.9 mph - N/A   Clear
10:33 PM 21.2 °F 14.9 °F 17.6 °F 86% 29.36 in 10.0 mi South 4.6 mph - N/A   Clear
10:53 PM 21.2 °F 12.6 °F 19.4 °F 93% 29.36 in 10.0 mi South 6.9 mph - N/A   Mostly Cloudy
11:14 PM 24.8 °F 17.9 °F 19.4 °F 80% 29.35 in 10.0 mi SSW 5.8 mph - N/A   Overcast
11:33 PM 24.8 °F 17.9 °F 19.4 °F 80% 29.34 in 10.0 mi SSW 5.8 mph - N/A   Mostly Cloudy
11:53 PM 24.8 °F 17.9 °F 19.4 °F 80% 29.34 in 10.0 mi SSW 5.8 mph - N/A   Mostly Cloudy